Wind_Speed
3 3 3 3 1 1 3 3 2 2 2 3 4 4 5 5 5 4 5 5 4 4 5 4 4 4 3 3 3 2 1 1 0 1 2 1 2 2 2 2 2 1 1 2 2 2 2 2 3
3 3 3 3 2 3 5 4 4 3 3 3 4 4 5 5 5 5 5 5 5 5 5 5 5 4 4 3 3 3 2 2 1 1 1 1 1 1 1 2 2 1 2 2 2 2 2 3 3
4 4 4 4 5 6 7 5 4 4 3 3 4 5 5 5 5 6 6 6 5 5 6 5 5 5 5 4 4 4 3 3 2 2 2 2 2 2 2 2 3 2 2 2 3 3 3 3 4
5 5 5 5 6 7 7 5 4 4 3 4 5 6 6 6 6 6 6 6 6 6 7 6 6 6 5 5 5 5 4 4 3 3 3 3 3 3 3 4 4 3 3 2 3 3 3 3 3
7 6 6 7 8 8 7 6 5 4 4 4 5 7 7 7 6 6 6 6 6 7 7 7 6 6 6 6 6 5 5 5 5 4 4 4 4 4 4 4 4 4 3 3 3 4 4 4 4
8 7 8 8 9 9 8 7 6 5 5 5 7 7 7 7 7 6 6 6 7 8 7 7 6 5 6 6 6 5 5 5 5 5 5 5 6 5 6 5 4 4 4 4 4 4 4 5 5
9 9 10 10 10 10 9 8 7 7 6 6 7 7 7 8 7 7 7 7 8 8 8 7 6 5 5 6 6 6 6 6 6 6 6 6 6 6 7 7 6 6 6 5 5 6 6 5 5
10 10 10 10 10 11 10 9 8 8 7 7 8 8 8 8 8 8 8 8 8 9 9 8 7 6 6 6 6 6 6 7 7 7 7 7 7 7 7 8 8 7 7 7 6 7 6 7 6
11 10 11 11 11 12 11 10 9 9 8 8 9 9 10 9 9 9 9 9 9 10 9 9 8 7 7 7 7 7 7 7 8 8 7 8 8 8 8 8 9 9 9 9 8 8 8 7 7
12 12 12 12 12 12 11 10 9 9 9 9 9 10 11 10 10 10 10 10 10 10 9 9 8 7 7 8 8 8 8 8 9 9 8 9 9 9 9 9 9 10 10 10 10 10 9 9 8
13 14 14 13 12 12 12 11 10 10 10 10 10 11 11 10 10 10 10 10 11 10 10 10 9 8 9 9 9 8 8 9 9 9 9 9 10 10 10 10 10 10 11 11 10 10 10 10 9
15 15 14 14 13 12 12 11 10 10 10 10 11 11 11 10 10 11 11 11 11 11 10 10 10 10 10 10 10 9 9 9 9 10 10 10 10 11 10 10 11 11 11 11 11 11 11 11 10
15 15 15 15 14 13 12 12 11 10 11 11 11 10 10 10 11 11 11 12 12 11 11 11 11 11 11 11 11 10 10 9 10 10 10 11 11 11 11 11 12 11 11 11 11 12 11 12 12
15 16 15 15 15 14 13 12 12 11 12 12 11 11 11 11 12 11 12 12 12 12 12 12 12 12 12 12 11 11 10 10 10 10 10 10 11 11 12 12 12 12 12 12 12 12 12 12 12
15 15 16 16 15 14 13 13 13 12 12 13 13 12 12 12 12 12 12 13 13 13 13 14 13 12 12 12 12 11 10 10 10 10 10 10 11 12 13 13 13 13 13 13 12 12 12 13 13
16 15 16 16 16 15 14 14 14 14 13 14 14 13 12 12 12 12 13 13 14 14 14 14 13 12 12 12 12 11 11 11 11 11 10 10 11 12 12 13 14 14 13 13 13 12 13 13 14
16 16 17 17 16 16 15 15 15 15 15 14 14 13 13 12 13 13 13 14 14 15 14 14 13 13 13 12 11 12 12 12 12 12 11 11 11 12 12 13 13 13 13 13 13 13 13 13 14
17 17 18 18 17 17 16 16 16 16 15 15 15 14 13 13 13 13 14 14 14 15 15 14 14 14 13 14 13 13 13 13 13 12 12 11 11 12 12 13 13 13 13 13 14 14 13 13 14
19 19 18 19 18 18 17 17 16 16 15 15 15 14 13 13 13 13 14 15 15 15 15 15 15 15 14 14 13 13 14 13 13 13 12 11 12 12 12 12 13 13 13 13 13 14 14 14 14
20 20 19 19 20 19 18 17 16 16 16 16 15 15 14 13 13 14 14 15 15 15 15 15 15 15 15 14 14 14 13 13 13 12 12 11 11 12 12 11 11 12 12 12 12 13 14 14 13
20 20 20 21 20 20 19 17 17 16 16 15 15 15 15 14 14 15 15 15 15 15 15 14 14 14 14 13 14 13 13 12 12 12 11 11 10 10 11 10 10 11 12 12 11 12 13 13 13
20 20 21 21 20 20 19 18 17 17 16 16 16 16 16 15 15 16 16 16 16 15 15 15 14 13 13 13 13 13 13 13 13 12 11 10 10 10 10 10 10 10 11 11 11 12 13 13 14
21 21 21 21 21 20 19 18 17 17 17 16 16 17 17 16 16 16 16 16 16 16 15 14 13 13 13 14 13 13 13 13 13 12 11 11 11 11 10 9 9 10 11 11 11 11 12 14 15
22 21 21 21 21 20 18 18 17 17 17 17 17 17 17 16 16 17 16 16 16 15 15 14 13 13 13 13 13 13 12 12 11 11 11 11 11 10 10 10 11 11 10 10 11 12 13 14 15
22 20 20 20 20 20 18 18 17 17 17 17 18 18 17 17 17 17 17 15 14 14 14 14 13 13 13 13 13 12 11 10 10 10 10 10 10 10 10 11 11 12 11 11 11 11 12 13 14
22 21 20 19 18 19 20 19 18 18 17 17 18 18 17 17 17 17 17 15 14 14 13 12 12 12 12 12 12 11 10 9 9 9 9 10 10 11 11 12 12 12 12 12 12 13 12 13 13
23 22 20 20 20 19 19 19 19 18 18 17 17 16 16 16 16 16 16 15 14 13 12 11 11 11 11 12 11 10 10 10 10 9 10 10 10 11 11 11 12 13 13 12 13 12 13 13 13
24 23 23 21 20 19 19 19 19 18 17 16 15 15 16 16 16 16 15 15 14 13 12 12 11 11 10 11 11 10 11 10 10 10 10 10 10 10 10 11 12 12 12 12 12 12 12 13 13
24 23 23 22 21 19 18 18 19 18 18 17 17 17 17 16 16 16 15 14 13 13 12 10 10 10 10 11 11 11 11 11 11 11 11 11 11 11 10 10 10 10 10 11 11 11 11 12 13
24 24 24 23 22 20 19 19 19 18 19 19 18 18 17 17 17 16 14 14 14 13 12 12 11 11 11 11 11 12 12 12 12 12 12 11 11 10 10 10 9 9 9 10 11 11 11 11 12
Wind_Direction
232 233 236 237 256 261 253 270 295 307 331 341 355 7 14 20 17 6 1 359 354 353 348 333 321 319 314 309 304 312 320 326 167 159 149 141 134 148 169 168 160 137 202 196 182 173 186 191 196
237 230 235 231 205 242 258 273 292 300 320 332 347 356 360 6 5 358 349 346 345 349 344 331 317 314 308 300 288 283 294 285 256 228 202 183 152 155 186 198 187 195 199 206 187 183 195 201 206
235 233 229 224 219 229 255 271 285 290 308 327 339 343 344 349 350 345 337 335 335 339 335 328 319 311 306 292 281 275 281 268 251 252 241 226 212 214 216 205 207 212 198 210 196 198 218 229 228
230 228 228 228 234 246 264 276 282 290 299 318 328 332 333 338 342 336 329 326 326 326 325 322 314 309 302 291 276 272 268 256 252 254 252 241 229 225 217 211 216 216 218 225 225 220 226 240 240
229 229 229 233 243 257 267 274 284 286 291 306 315 319 322 328 330 328 322 318 321 318 317 315 308 302 296 286 276 271 262 256 252 251 253 247 239 230 219 216 215 223 232 242 242 230 228 237 231
226 229 226 233 248 256 264 267 275 280 288 297 308 310 316 319 320 318 316 318 317 316 314 312 311 303 296 286 278 265 258 253 254 256 256 252 242 237 227 218 221 229 236 240 242 236 235 229 222
225 224 227 235 248 254 261 262 269 281 290 297 302 307 309 312 314 312 312 311 311 311 312 310 308 302 296 286 272 265 260 256 259 263 265 257 245 242 241 236 235 235 238 238 243 241 232 231 239
222 223 230 238 246 253 259 262 268 276 287 295 301 301 302 309 310 309 311 309 305 305 305 303 300 298 292 284 272 266 263 258 257 258 263 258 250 246 247 243 237 235 236 236 242 245 241 244 252
221 221 229 236 242 250 254 259 265 275 283 292 298 300 302 306 306 307 307 304 302 303 301 298 299 296 294 285 276 269 264 259 256 258 262 262 255 251 249 248 245 243 243 241 240 242 245 246 245
223 221 230 236 241 248 252 257 265 275 281 285 293 300 302 302 302 301 301 300 297 300 299 300 300 296 293 288 282 277 269 263 258 261 264 263 257 253 251 248 245 247 249 245 243 244 245 243 239
227 228 234 237 242 248 255 260 265 275 279 285 292 298 300 297 296 298 299 299 297 302 300 301 296 295 292 287 282 276 269 266 263 263 264 261 258 253 252 250 247 247 247 245 244 241 243 243 241
229 232 236 240 243 246 252 258 264 272 278 285 290 296 297 298 298 298 298 296 294 295 297 300 296 291 290 285 278 271 271 268 263 263 264 259 257 255 256 254 251 248 248 249 246 244 244 243 245
231 233 238 242 244 246 253 259 264 271 277 283 288 292 293 294 298 301 300 298 297 295 295 293 297 295 288 285 278 271 270 267 265 265 264 261 258 256 256 256 251 248 249 249 248 245 244 243 240
234 236 241 244 247 250 255 261 266 271 275 280 286 289 292 294 297 299 299 298 293 291 293 293 290 292 290 283 276 274 271 266 266 264 264 263 264 259 257 253 253 251 250 251 248 244 243 244 242
235 238 243 246 248 250 256 261 266 267 269 276 282 284 288 292 295 298 294 293 293 291 291 293 291 288 291 285 275 273 272 268 267 267 267 263 263 261 256 252 252 251 251 249 244 244 243 245 246
238 240 244 247 248 251 255 260 263 264 269 275 280 283 289 292 292 294 294 293 292 292 293 294 290 290 290 286 277 271 270 270 268 270 270 265 264 262 258 253 252 251 250 247 246 245 244 245 245
239 241 242 247 248 251 254 255 259 264 269 275 281 283 288 291 291 290 291 292 290 289 289 290 291 290 289 285 274 270 268 268 267 270 271 267 264 261 261 256 252 251 251 250 248 248 247 248 246
237 238 242 246 250 251 252 254 259 264 268 273 279 282 284 289 289 288 290 291 291 290 287 286 287 286 285 286 276 268 266 264 263 266 270 270 267 266 264 257 252 252 252 252 248 247 246 247 245
235 237 241 245 250 252 255 256 259 262 266 270 276 283 283 287 288 288 291 293 293 291 288 285 284 282 281 280 274 270 264 262 260 262 266 270 270 271 268 259 252 252 251 248 242 243 245 246 244
234 236 242 247 250 252 254 258 259 259 264 268 273 279 281 283 287 290 292 293 293 292 290 287 283 278 275 273 272 273 268 265 261 262 265 269 270 268 267 260 253 256 250 243 242 243 243 244 243
237 239 242 247 252 255 257 258 259 262 265 267 271 276 279 281 285 289 288 289 291 293 292 288 282 275 271 270 270 272 274 270 268 266 265 269 271 264 263 258 254 252 249 249 248 245 241 241 244
238 242 245 249 252 256 258 261 261 264 266 269 271 275 276 279 285 288 287 287 288 289 289 286 280 273 268 268 269 273 273 267 266 265 266 266 268 268 263 254 250 251 248 250 250 246 245 242 245
240 243 245 248 251 254 258 260 262 263 266 270 272 273 275 276 282 286 285 284 284 284 284 283 278 269 266 266 268 272 272 267 264 262 264 267 267 263 257 251 250 253 252 251 250 246 246 245 247
241 244 246 249 252 255 258 261 262 264 265 268 270 272 274 274 278 282 283 282 281 282 280 280 275 266 264 266 269 270 270 267 265 260 263 267 264 260 256 255 252 254 255 253 252 248 248 249 249
241 244 247 250 253 257 258 260 260 264 266 266 266 269 272 274 274 278 281 281 284 282 279 277 271 266 263 265 267 266 266 266 265 260 263 265 262 258 255 254 253 254 255 256 254 252 251 252 251
241 241 242 246 250 256 259 260 262 266 267 266 266 268 271 273 274 276 279 279 281 281 279 274 267 262 260 263 263 262 263 266 267 264 264 263 260 258 256 254 250 255 258 259 257 255 257 255 253
237 238 240 247 249 253 259 263 262 264 267 269 269 268 269 273 274 275 278 277 277 276 274 274 265 259 257 258 260 261 259 263 264 265 267 267 262 260 259 256 253 255 257 258 260 263 260 256 256
235 237 239 243 248 252 261 267 268 266 264 265 267 269 270 272 274 274 273 272 269 269 269 269 265 261 261 257 259 258 257 261 264 267 270 273 270 264 259 257 254 254 256 259 260 265 264 264 262
237 236 239 243 247 253 260 264 267 265 265 265 266 270 271 271 271 270 269 267 264 263 262 266 271 265 260 256 256 257 257 260 262 264 267 269 268 263 258 254 250 252 256 258 259 260 260 262 264
236 237 240 243 247 251 257 262 264 265 267 265 265 266 268 267 268 268 266 263 260 261 263 261 264 264 258 255 255 256 258 261 261 259 260 260 261 261 257 258 253 255 259 260 259 259 260 261 264
Height
5897 5897 5898 5899 5901 5902 5902 5901 5900 5900 5899 5899 5898 5897 5896 5895 5895 5896 5893 5890 5889 5888 5887 5887 5886 5885 5885 5884 5884 5884 5884 5883 5883 5883 5883 5883 5883 5883 5883 5883 5883 5882 5882 5882 5882 5883 5883 5883 5883
5896 5896 5898 5899 5901 5902 5901 5900 5899 5899 5899 5898 5897 5896 5895 5894 5893 5892 5890 5889 5889 5887 5887 5886 5885 5884 5884 5883 5883 5883 5883 5882 5882 5882 5882 5882 5882 5882 5882 5882 5882 5881 5881 5881 5881 5882 5882 5882 5883
5895 5896 5898 5899 5900 5901 5900 5899 5898 5898 5898 5897 5896 5895 5894 5893 5892 5891 5890 5889 5888 5886 5885 5885 5884 5883 5883 5882 5882 5882 5881 5881 5881 5881 5881 5881 5881 5881 5881 5881 5881 5881 5881 5881 5881 5881 5882 5882 5882
5894 5896 5897 5899 5898 5898 5898 5898 5897 5897 5897 5896 5895 5894 5893 5892 5891 5890 5888 5887 5886 5885 5884 5883 5883 5882 5881 5881 5880 5880 5880 5880 5880 5880 5880 5880 5880 5880 5880 5880 5880 5880 5880 5880 5880 5880 5881 5881 5882
5893 5895 5897 5897 5897 5896 5896 5896 5896 5896 5895 5895 5894 5893 5892 5891 5890 5889 5887 5886 5885 5884 5883 5882 5881 5881 5880 5879 5879 5878 5878 5878 5878 5878 5878 5878 5879 5878 5878 5878 5879 5879 5879 5879 5879 5879 5880 5880 5881
5892 5894 5896 5896 5895 5895 5895 5895 5895 5895 5894 5894 5893 5892 5891 5890 5889 5888 5886 5885 5884 5883 5882 5881 5880 5879 5879 5878 5877 5877 5877 5876 5876 5876 5877 5877 5877 5877 5877 5877 5877 5878 5878 5878 5878 5879 5879 5879 5879
5891 5892 5893 5893 5893 5893 5893 5893 5893 5893 5893 5893 5892 5891 5890 5888 5887 5886 5885 5884 5883 5882 5881 5880 5879 5878 5877 5876 5876 5875 5875 5875 5875 5874 5875 5875 5875 5875 5875 5876 5876 5876 5877 5876 5877 5877 5877 5878 5878
5888 5891 5891 5891 5891 5891 5891 5891 5891 5891 5891 5891 5890 5889 5888 5887 5885 5885 5883 5882 5881 5880 5879 5878 5877 5876 5875 5875 5874 5874 5873 5873 5873 5873 5873 5873 5873 5873 5873 5874 5874 5874 5874 5874 5875 5875 5876 5876 5877
5886 5889 5889 5889 5889 5889 5889 5889 5890 5890 5889 5889 5888 5887 5886 5885 5884 5883 5881 5880 5879 5879 5877 5876 5875 5874 5874 5873 5872 5872 5871 5871 5871 5871 5870 5870 5871 5871 5871 5871 5872 5872 5872 5872 5873 5873 5874 5874 5875
5884 5886 5887 5887 5887 5887 5887 5887 5888 5888 5887 5887 5886 5885 5884 5882 5881 5880 5879 5878 5877 5877 5876 5874 5874 5873 5872 5871 5870 5870 5869 5868 5868 5868 5868 5868 5868 5869 5869 5869 5869 5869 5870 5870 5870 5871 5871 5872 5872
5881 5883 5883 5884 5884 5884 5885 5885 5886 5886 5886 5885 5884 5883 5882 5880 5879 5878 5877 5876 5875 5875 5874 5872 5872 5871 5870 5869 5868 5867 5867 5866 5866 5866 5866 5866 5866 5866 5866 5867 5867 5867 5867 5868 5868 5868 5869 5869 5870
5878 5880 5880 5881 5881 5882 5883 5883 5883 5883 5883 5882 5882 5881 5879 5878 5877 5876 5875 5874 5873 5872 5871 5870 5869 5869 5868 5867 5866 5865 5864 5863 5863 5863 5863 5863 5863 5864 5864 5864 5864 5865 5865 5865 5866 5866 5866 5867 5868
5875 5877 5877 5878 5879 5880 5880 5881 5881 5881 5880 5880 5879 5878 5877 5876 5875 5874 5873 5872 5871 5870 5869 5868 5867 5866 5865 5864 5863 5863 5862 5861 5861 5860 5860 5860 5860 5860 5861 5861 5862 5862 5862 5863 5863 5864 5864 5864 5865
5872 5874 5874 5875 5876 5877 5878 5878 5878 5878 5878 5877 5877 5876 5875 5874 5873 5872 5871 5870 5868 5867 5866 5865 5864 5863 5863 5861 5860 5860 5859 5859 5858 5858 5858 5858 5857 5857 5858 5859 5859 5859 5860 5860 5861 5861 5861 5862 5863
5869 5871 5872 5873 5873 5874 5875 5876 5876 5875 5875 5874 5874 5873 5873 5872 5870 5869 5868 5867 5866 5864 5863 5862 5861 5860 5859 5858 5857 5857 5857 5856 5856 5855 5855 5855 5855 5855 5855 5856 5856 5856 5857 5857 5857 5858 5859 5859 5860
5866 5868 5870 5870 5870 5871 5874 5874 5873 5872 5872 5872 5871 5871 5870 5869 5868 5867 5865 5864 5863 5862 5861 5860 5858 5857 5856 5855 5854 5854 5854 5853 5853 5853 5853 5852 5852 5852 5852 5852 5853 5853 5853 5854 5854 5855 5856 5856 5857
5863 5865 5867 5867 5867 5868 5869 5870 5869 5869 5869 5869 5868 5868 5867 5866 5865 5864 5863 5862 5861 5859 5858 5857 5855 5855 5853 5852 5851 5851 5851 5850 5850 5850 5850 5849 5849 5849 5849 5849 5849 5850 5850 5851 5851 5852 5853 5853 5854
5860 5862 5863 5863 5863 5865 5865 5866 5866 5866 5866 5865 5865 5865 5864 5863 5862 5861 5860 5859 5857 5856 5855 5854 5852 5851 5850 5849 5848 5848 5847 5847 5847 5847 5847 5846 5846 5846 5846 5846 5846 5846 5846 5847 5848 5849 5850 5850 5851
5855 5857 5858 5859 5859 5861 5861 5862 5863 5862 5862 5862 5862 5861 5861 5860 5859 5858 5857 5855 5854 5853 5851 5850 5849 5848 5847 5846 5845 5844 5844 5843 5843 5843 5843 5843 5843 5843 5842 5843 5843 5843 5843 5844 5845 5846 5846 5847 5848
5851 5853 5854 5855 5855 5856 5857 5858 5858 5858 5858 5858 5858 5858 5857 5856 5855 5854 5853 5852 5851 5850 5848 5846 5845 5844 5843 5843 5842 5841 5840 5839 5840 5840 5840 5840 5840 5839 5839 5839 5840 5840 5840 5841 5842 5842 5843 5844 5845
5846 5848 5850 5850 5851 5852 5853 5855 5855 5855 5854 5854 5854 5854 5853 5853 5852 5851 5850 5849 5847 5846 5844 5843 5841 5840 5840 5839 5839 5838 5837 5837 5837 5837 5837 5837 5836 5836 5836 5836 5836 5837 5838 5838 5839 5840 5840 5841 5842
5842 5844 5845 5846 5847 5849 5850 5851 5851 5851 5851 5851 5850 5850 5849 5849 5848 5847 5846 5845 5843 5842 5841 5839 5838 5837 5836 5836 5835 5835 5835 5834 5834 5834 5834 5834 5833 5833 5833 5833 5834 5834 5835 5835 5836 5837 5837 5838 5839
5837 5838 5840 5841 5843 5844 5845 5847 5849 5847 5847 5847 5846 5846 5845 5845 5844 5843 5842 5840 5839 5838 5837 5835 5834 5834 5833 5833 5833 5832 5832 5831 5830 5830 5831 5831 5830 5831 5831 5831 5831 5831 5832 5833 5833 5833 5834 5835 5836
5831 5834 5835 5836 5838 5840 5842 5842 5844 5843 5843 5842 5842 5842 5841 5841 5840 5839 5837 5836 5835 5834 5833 5832 5831 5830 5830 5830 5829 5829 5828 5828 5827 5828 5828 5828 5828 5828 5828 5828 5829 5829 5830 5830 5830 5831 5831 5832 5832
5826 5829 5831 5833 5834 5836 5837 5836 5839 5838 5838 5838 5838 5837 5837 5836 5835 5834 5833 5832 5831 5830 5829 5828 5827 5827 5827 5827 5827 5826 5826 5825 5825 5825 5826 5826 5825 5825 5826 5826 5826 5827 5827 5827 5828 5828 5828 5828 5829
5821 5824 5828 5830 5831 5832 5831 5831 5834 5833 5833 5833 5833 5833 5832 5831 5831 5830 5829 5828 5827 5826 5825 5824 5824 5824 5824 5824 5824 5824 5824 5823 5823 5823 5823 5823 5823 5823 5823 5823 5824 5824 5824 5825 5825 5825 5825 5825 5825
5816 5818 5822 5824 5825 5826 5826 5827 5828 5828 5828 5828 5828 5828 5827 5827 5826 5825 5825 5824 5823 5822 5822 5821 5821 5821 5821 5821 5821 5821 5821 5821 5820 5820 5820 5820 5820 5820 5820 5820 5821 5821 5822 5822 5822 5822 5822 5822 5822
5811 5813 5815 5818 5819 5821 5822 5822 5823 5822 5823 5823 5824 5823 5823 5823 5822 5821 5821 5820 5820 5819 5819 5819 5818 5819 5819 5819 5819 5819 5819 5818 5818 5818 5818 5818 5817 5817 5817 5818 5818 5818 5819 5819 5819 5819 5819 5819 5819
5805 5807 5809 5812 5814 5817 5818 5821 5817 5818 5818 5819 5819 5819 5818 5818 5817 5817 5816 5816 5816 5816 5816 5816 5816 5816 5816 5816 5816 5816 5816 5816 5816 5816 5816 5815 5815 5815 5815 5815 5815 5816 5816 5816 5816 5816 5816 5817 5816
5799 5801 5804 5807 5808 5810 5812 5816 5812 5813 5813 5813 5814 5814 5813 5813 5813 5812 5812 5812 5812 5813 5813 5813 5813 5813 5813 5814 5814 5814 5814 5814 5814 5813 5813 5813 5813 5813 5813 5813 5813 5813 5813 5813 5814 5814 5814 5814 5814